TimeEST,TemperatureF,Dew PointF,Humidity,Sea Level PressureIn,VisibilityMPH,Wind Direction,Wind SpeedMPH,Gust SpeedMPH,PrecipitationIn,Events,Conditions,WindDirDegrees,DateUTC
12:56 AM,36.0,25.2,65,30.24,10.0,WNW,10.4,-,N/A,,Overcast,300,2013-11-09 05:56:00
1:56 AM,36.0,25.2,65,30.24,10.0,West,8.1,-,N/A,,Overcast,280,2013-11-09 06:56:00
2:56 AM,36.0,23.0,59,30.24,10.0,West,6.9,-,N/A,,Overcast,270,2013-11-09 07:56:00
3:56 AM,34.0,26.1,73,30.24,10.0,Calm,Calm,-,N/A,,Overcast,0,2013-11-09 08:56:00
4:56 AM,31.1,26.1,82,30.25,10.0,East,4.6,-,N/A,,Mostly Cloudy,80,2013-11-09 09:56:00
5:56 AM,30.0,25.2,82,30.25,10.0,SSE,3.5,-,N/A,,Clear,150,2013-11-09 10:56:00
6:27 AM,30.2,24.8,80,30.21,10.0,SSE,3.5,-,N/A,,Clear,150,2013-11-09 11:27:00
6:56 AM,32.0,26.1,79,30.24,10.0,Variable,4.6,-,N/A,,Scattered Clouds,0,2013-11-09 11:56:00
7:56 AM,34.9,27.1,73,30.26,10.0,South,4.6,-,N/A,,Mostly Cloudy,180,2013-11-09 12:56:00
8:56 AM,36.0,28.0,73,30.25,10.0,SSW,5.8,-,N/A,,Overcast,200,2013-11-09 13:56:00
9:56 AM,36.9,28.0,70,30.24,10.0,SW,8.1,-,N/A,,Mostly Cloudy,220,2013-11-09 14:56:00
10:56 AM,41.9,28.0,58,30.19,10.0,SW,8.1,-,N/A,,Overcast,220,2013-11-09 15:56:00
11:56 AM,43.9,27.1,52,30.13,10.0,South,10.4,-,N/A,,Overcast,180,2013-11-09 16:56:00
12:56 PM,43.9,26.1,50,30.09,10.0,South,15.0,-,N/A,,Overcast,180,2013-11-09 17:56:00
1:56 PM,45.0,26.1,48,30.04,10.0,South,11.5,-,N/A,,Mostly Cloudy,170,2013-11-09 18:56:00
2:56 PM,43.9,25.2,48,30.00,10.0,South,17.3,21.9,N/A,,Overcast,170,2013-11-09 19:56:00
3:56 PM,43.9,24.1,46,30.00,10.0,South,12.7,20.7,N/A,,Overcast,190,2013-11-09 20:56:00
4:56 PM,41.9,25.2,52,29.98,10.0,South,17.3,24.2,N/A,,Mostly Cloudy,170,2013-11-09 21:56:00
5:56 PM,41.9,26.1,53,29.99,10.0,South,10.4,-,N/A,,Mostly Cloudy,170,2013-11-09 22:56:00
6:56 PM,43.0,27.1,54,29.99,10.0,South,11.5,-,N/A,,Overcast,180,2013-11-09 23:56:00
7:56 PM,43.0,27.1,54,29.96,10.0,South,6.9,18.4,N/A,,Overcast,180,2013-11-10 00:56:00
8:56 PM,43.0,27.1,54,29.95,10.0,South,10.4,-,N/A,,Overcast,190,2013-11-10 01:56:00
9:56 PM,43.9,27.1,52,29.91,10.0,South,8.1,-,N/A,,Overcast,180,2013-11-10 02:56:00
10:56 PM,43.9,27.1,52,29.88,10.0,South,9.2,-,N/A,,Overcast,170,2013-11-10 03:56:00
11:56 PM,43.9,27.1,52,29.87,10.0,South,6.9,-,N/A,,Overcast,190,2013-11-10 04:56:00